Home > Weather > Arrecife > Past weeks

Flag for Spain Weather for the Past 2 Weeks in Arrecife, Canary Islands, Spain

Now
68 °F

Passing clouds.


Feels Like: 68 °F
Forecast: 66 / 71 °F
Wind: 10 mph from North

Location: Lanzarote / Aeropuerto

Current Time: May 5, 2016 at 8:24:07 AM

Latest Report: May 5, 2016 at 7:30 AM


Visibility: N/A

Pressure: 29.98 "Hg

Humidity: 73%

Dew Point: 59 °F

Location of ArrecifeLocation

Historic Weather in Arrecife — Graph

°F

Arrecife Temperature Yesterday

Maximum temperature yesterday: 79 °F (at 3:00 PM)
Minimum temperature yesterday: 64 °F (at 12:30 AM)
Average temperature yesterday: 71 °F

High & Low Weather Summary for the Past Weeks

 TemperatureHumidityPressure
High79 °F (May 4, 3:00 PM)88% (Apr 22, 9:30 PM)30.15 "Hg (Apr 22, 9:30 PM)
Low59 °F (Apr 20, 7:00 AM)30% (May 4, 3:00 PM)29.92 "Hg (Apr 25, 6:30 PM)
Average69 °F66%30.01 "Hg
* Reported Apr 20 7:00 AM — May 5 7:00 AM, Arrecife, Weather by CustomWeather, © 2016

Note: Actual official high and low records may vary slightly from our data, if they occured in-between our weather recording intervals... More about our weather records

Advertising

Arrecife Weather History for the Previous 24 Hours

Scroll right to see more
 ConditionsComfort  
Time TempWeatherWind HumidityBarometerVisibility
7:00 AM
Thu, May 5
68 °FPassing clouds.12 mph73%29.95 "HgN/A
6:30 AM68 °FPartly cloudy.8 mph73%29.95 "HgN/A
6:00 AM68 °FPassing clouds.9 mph73%29.95 "HgN/A
1:00 AM66 °FPassing clouds.8 mph78%29.98 "HgN/A
12:30 AM66 °FPassing clouds.8 mph73%29.98 "HgN/A
12:00 AM68 °FPassing clouds.6 mph69%29.98 "HgN/A
11:30 PM
Wed, May 4
68 °FPassing clouds.7 mph69%29.98 "HgN/A
11:00 PM68 °FPassing clouds.10 mph69%29.98 "HgN/A
10:30 PM68 °FPassing clouds.12 mph69%29.98 "HgN/A
10:00 PM68 °FPassing clouds.10 mph69%29.98 "HgN/A
9:30 PM68 °FPassing clouds.8 mph69%29.98 "HgN/A
9:00 PM70 °FPassing clouds.12 mph64%29.95 "HgN/A
8:30 PM70 °FPassing clouds.14 mph60%29.95 "HgN/A
8:00 PM72 °FPassing clouds.14 mph53%29.95 "HgN/A
7:30 PM72 °FPassing clouds.15 mph57%29.95 "HgN/A
7:00 PM72 °FPassing clouds.16 mph57%29.95 "HgN/A
6:30 PM75 °FPassing clouds.17 mph47%29.92 "HgN/A
6:00 PM75 °FPassing clouds.15 mph44%29.92 "HgN/A
5:30 PM75 °FPassing clouds.15 mph44%29.92 "HgN/A
5:00 PM77 °FPassing clouds.15 mph42%29.92 "HgN/A
4:30 PM77 °FPassing clouds.17 mph39%29.92 "HgN/A
4:00 PM77 °FPassing clouds.14 mph34%29.92 "HgN/A
3:30 PM79 °FPassing clouds.13 mph32%29.95 "HgN/A
3:00 PM79 °FPassing clouds.10 mph30%29.95 "HgN/A
2:30 PM75 °FPassing clouds.17 mph57%29.95 "HgN/A
2:00 PM75 °FPassing clouds.14 mph57%29.95 "HgN/A
1:30 PM77 °FPassing clouds.5 mph39%29.95 "HgN/A
1:00 PM72 °FPassing clouds.9 mph65%29.95 "HgN/A
12:30 PM72 °FPassing clouds.12 mph69%29.95 "HgN/A
12:00 PM72 °FPassing clouds.9 mph65%29.98 "HgN/A
11:30 AM70 °FPassing clouds.8 mph73%29.98 "HgN/A
11:00 AM70 °FPassing clouds.7 mph69%29.98 "HgN/A
10:30 AM70 °FScattered clouds.7 mph73%29.95 "HgN/A
10:00 AM68 °FScattered clouds.5 mph73%29.95 "HgN/A
9:30 AM68 °FScattered clouds.5 mph69%29.95 "HgN/A
9:00 AM68 °FPassing clouds.3 mph69%29.95 "HgN/A
8:30 AM66 °FPassing clouds.No wind78%29.95 "HgN/A
8:00 AM64 °FPassing clouds.1 mph78%29.95 "HgN/A
Weather by CustomWeather, © 2016

See weather overviewHow to use our weather pages